Stations météo

réclame
Mon MeteoGroup
Zaragoza/Aeropuerto, Espagne (8160): Température de l'air & dewpoint: 01.08.2020 23:00:00 - 07.08.2020 23:00:00 (CEST)Zaragoza/Aeropuerto, Espagne (8160): Vitesse du vent & gusts: 01.08.2020 23:00:00 - 07.08.2020 23:00:00 (CEST)Zaragoza/Aeropuerto, Espagne (8160): Direction du vent: 01.08.2020 23:00:00 - 07.08.2020 23:00:00 (CEST)Zaragoza/Aeropuerto, Espagne (8160): reduced air pressure: 01.08.2020 23:00:00 - 07.08.2020 23:00:00 (CEST)Zaragoza/Aeropuerto, Espagne (8160): visibility: 01.08.2020 23:00:00 - 07.08.2020 23:00:00 (CEST)Zaragoza/Aeropuerto, Espagne (8160): Quantités de précipitations: 01.08.2020 23:00:00 - 07.08.2020 23:00:00 (CEST)
Date & Time tt [°C] td [°C] ff [km/h] ff [knt] fx [km/h] fx [knt] dd ppp [hPa] vv [km] rr [mm]
07.08.2020 23:00:00 29,4 14,8 24 13 - - W 1018,2 15 -
07.08.2020 22:00:00 30,8 13,6 18 10 93 50 NW 1015,7 - 0,0
07.08.2020 21:00:00 36,7 9,3 18 10 - - SW 1011,9 - 0,0
07.08.2020 20:00:00 36,5 10,6 16 9 - - ENE 1012,1 30 -
07.08.2020 19:00:00 37,8 12,4 21 11 - - SSE 1012,6 - 0,0
07.08.2020 18:00:00 38,7 12,5 11 6 - - ESE 1012,6 - 0,0
07.08.2020 17:00:00 39,1 11,3 13 7 - - ESE 1012,6 30 -
07.08.2020 16:00:00 38,3 12,8 15 8 - - ESE 1013,3 - 0,0
07.08.2020 15:00:00 36,9 13,0 13 7 - - SE 1014,2 - 0,0
07.08.2020 14:00:00 35,2 13,4 9 5 - - ESE 1015,1 35 -
07.08.2020 13:00:00 32,9 14,5 11 6 - - ESE 1016,0 - 0,0
07.08.2020 12:00:00 31,3 13,6 11 6 - - E 1016,7 - 0,0
07.08.2020 11:00:00 30,1 13,8 11 6 - - E 1016,8 35 -
07.08.2020 10:00:00 28,5 14,0 13 7 - - ESE 1017,1 - 0,0
07.08.2020 09:00:00 26,0 15,1 9 5 - - E 1017,3 - 0,0
07.08.2020 08:00:00 23,3 15,1 5 3 - - ESE 1017,2 30 -
07.08.2020 07:00:00 22,7 15,0 5 3 - - ESE 1017,0 - 0,0
07.08.2020 06:00:00 23,7 14,9 11 6 - - ESE 1016,3 - 0,0
07.08.2020 05:00:00 24,6 15,5 16 9 - - ESE 1015,9 20 -
07.08.2020 04:00:00 24,9 16,3 11 6 - - ESE 1015,7 - 0,0
07.08.2020 03:00:00 25,6 16,4 15 8 - - ESE 1015,3 - 0,0
07.08.2020 02:00:00 26,6 16,5 13 7 - - ESE 1015,0 20 -
07.08.2020 01:00:00 27,5 16,1 13 7 - - ESE 1014,7 - 0,0
07.08.2020 00:00:00 28,8 16,0 15 8 - - E 1014,3 - 0,0
06.08.2020 23:00:00 31,4 15,0 13 7 - - SE 1013,4 20 -
06.08.2020 22:00:00 33,1 15,1 18 10 - - SE 1012,5 - 0,0
06.08.2020 21:00:00 34,2 12,0 15 8 - - ESE 1011,6 - 0,0
06.08.2020 20:00:00 36,4 11,3 15 8 - - ESE 1011,0 35 -
06.08.2020 19:00:00 37,4 12,1 16 9 - - ESE 1011,0 - 0,0
06.08.2020 18:00:00 37,7 11,6 16 9 - - ESE 1011,4 - 0,0
06.08.2020 17:00:00 37,1 11,1 15 8 - - ESE 1011,7 30 -
06.08.2020 16:00:00 36,2 13,6 15 8 - - ESE 1012,3 - 0,0
06.08.2020 15:00:00 34,8 13,6 15 8 - - E 1013,2 - 0,0
06.08.2020 14:00:00 32,8 17,4 13 7 - - E 1013,9 30 -
06.08.2020 13:00:00 30,9 18,9 13 7 - - ESE 1014,7 - 0,0
06.08.2020 12:00:00 28,6 19,0 11 6 - - ESE 1015,5 - 0,0
06.08.2020 11:00:00 26,6 19,0 13 7 - - E 1016,0 20 -
06.08.2020 10:00:00 25,2 18,9 15 8 - - ESE 1016,2 - 0,0
06.08.2020 09:00:00 23,2 17,0 8 4 - - E 1016,3 - 0,0
06.08.2020 08:00:00 21,3 16,9 4 2 - - SE 1016,2 15 -
06.08.2020 07:00:00 20,3 15,7 5 3 - - ESE 1016,0 - 0,0
06.08.2020 06:00:00 20,3 13,3 5 3 - - SE 1015,5 - 0,0
06.08.2020 05:00:00 20,4 8,7 2 1 - - ESE 1015,2 30 -
06.08.2020 04:00:00 21,0 7,9 2 1 - - SW 1015,1 - 0,0
06.08.2020 03:00:00 21,5 7,7 5 3 - - SW 1014,7 - 0,0
06.08.2020 02:00:00 22,9 8,6 5 3 - - NW 1014,0 30 -
06.08.2020 01:00:00 23,0 7,1 8 4 - - SE 1013,5 - 0,0
06.08.2020 00:00:00 24,2 8,2 5 3 - - E 1012,9 - 0,0
05.08.2020 23:00:00 26,9 5,2 8 4 - - SW 1011,9 30 -
05.08.2020 22:00:00 29,3 6,6 13 7 - - WSW 1011,1 - 0,0
05.08.2020 21:00:00 32,4 7,9 4 2 - - N 1010,1 - 0,0
05.08.2020 20:00:00 34,1 4,7 4 2 - - NNE 1009,7 30 -
05.08.2020 19:00:00 34,7 2,2 5 3 - - NNW 1009,5 - 0,0
05.08.2020 18:00:00 34,5 3,1 5 3 - - NW 1009,9 - 0,0
05.08.2020 17:00:00 33,1 5,6 8 4 - - N 1010,4 30 -
05.08.2020 16:00:00 31,8 8,7 8 4 - - N 1011,0 - 0,0
05.08.2020 15:00:00 30,5 8,8 4 2 - - SSE 1011,8 - 0,0
05.08.2020 14:00:00 28,4 10,1 8 4 - - WNW 1012,8 30 -
05.08.2020 13:00:00 26,3 10,0 9 5 - - WNW 1013,7 - 0,0
05.08.2020 12:00:00 24,0 11,7 9 5 - - NW 1014,4 - 0,0
05.08.2020 11:00:00 22,1 11,2 13 7 - - NW 1014,8 30 -
05.08.2020 10:00:00 20,8 11,1 16 9 - - WNW 1015,2 - 0,0
05.08.2020 09:00:00 19,1 11,1 13 7 - - NW 1015,2 - 0,0
05.08.2020 08:00:00 18,6 10,7 9 5 - - NW 1015,0 30 -
05.08.2020 07:00:00 17,4 10,5 9 5 - - W 1014,7 - 0,0
05.08.2020 06:00:00 18,2 10,8 11 6 - - WNW 1014,5 - 0,0
05.08.2020 05:00:00 19,1 10,9 22 12 - - WNW 1014,3 20 -
05.08.2020 04:00:00 19,6 10,6 24 13 - - WNW 1014,4 - 0,0
05.08.2020 03:00:00 19,7 10,7 15 8 - - W 1014,9 - 0,0
05.08.2020 02:00:00 20,6 11,5 26 14 - - WNW 1014,9 20 -
05.08.2020 01:00:00 21,5 11,5 34 18 - - NW 1014,5 - 0,0
05.08.2020 00:00:00 22,1 11,5 26 14 - - NW 1014,4 - 0,0
04.08.2020 23:00:00 23,4 11,1 18 10 - - WNW 1014,3 20 -
04.08.2020 22:00:00 24,9 10,7 28 15 - - WNW 1013,4 - 0,0
04.08.2020 21:00:00 26,8 9,6 21 11 - - WNW 1012,9 - 0,0
04.08.2020 20:00:00 28,3 8,6 34 18 - - NW 1012,4 40 -
04.08.2020 19:00:00 29,1 8,2 37 20 - - NW 1012,1 - 0,0
04.08.2020 18:00:00 29,3 8,4 31 17 - - NW 1012,6 - 0,0
04.08.2020 17:00:00 29,3 9,4 31 17 - - NW 1012,8 40 -
04.08.2020 16:00:00 28,7 10,4 29 16 - - NW 1013,3 - 0,0
04.08.2020 15:00:00 27,7 10,8 28 15 - - NW 1014,3 - 0,0
04.08.2020 14:00:00 26,7 11,2 26 14 - - NW 1015,0 40 -
04.08.2020 13:00:00 25,5 12,0 29 16 - - NW 1015,5 - 0,0
04.08.2020 12:00:00 23,4 11,8 29 16 - - NW 1016,0 - 0,0
04.08.2020 11:00:00 22,2 11,6 35 19 - - NW 1016,5 40 -
04.08.2020 10:00:00 21,1 11,4 29 16 - - NW 1017,1 - 0,0
04.08.2020 09:00:00 20,1 11,6 29 16 - - NW 1017,1 - 0,0
04.08.2020 08:00:00 18,9 11,5 28 15 - - NW 1016,7 30 -
04.08.2020 07:00:00 18,6 10,9 41 22 - - NW 1016,1 - 0,0
04.08.2020 06:00:00 18,9 10,7 31 17 - - WNW 1016,5 - 0,0
04.08.2020 05:00:00 19,0 11,1 35 19 - - WNW 1016,5 20 -
04.08.2020 04:00:00 18,9 10,5 31 17 - - WNW 1016,6 - 0,0
04.08.2020 03:00:00 19,4 10,4 35 19 - - WNW 1016,5 - 0,0
04.08.2020 02:00:00 19,3 10,6 35 19 - - NW 1016,7 20 -
04.08.2020 01:00:00 20,2 10,0 44 24 - - NW 1016,3 - 0,0
04.08.2020 00:00:00 21,0 10,2 35 19 - - WNW 1016,3 - 0,0
03.08.2020 23:00:00 21,9 10,7 34 18 - - NW 1015,9 20 -
03.08.2020 22:00:00 22,9 10,7 26 14 - - NW 1014,9 - 0,0
03.08.2020 21:00:00 24,7 10,2 35 19 - - WNW 1013,9 - 0,0
03.08.2020 20:00:00 25,9 10,1 34 18 - - NW 1012,7 30 -
03.08.2020 19:00:00 26,8 10,1 39 21 - - NW 1012,7 - 0,0
03.08.2020 18:00:00 27,5 9,8 46 25 - - NW 1012,3 - 0,0
03.08.2020 17:00:00 28,0 10,2 54 29 - - NW 1012,3 30 -
03.08.2020 16:00:00 27,2 10,8 44 24 - - NW 1013,1 - 0,0
03.08.2020 15:00:00 27,7 10,4 42 23 - - NW 1013,6 - 0,0
03.08.2020 14:00:00 26,3 9,6 48 26 - - NW 1014,4 30 -
03.08.2020 13:00:00 24,9 9,6 39 21 - - NW 1015,4 - 0,0
03.08.2020 12:00:00 23,5 10,2 39 21 - - WNW 1016,1 - 0,0
03.08.2020 11:00:00 21,7 10,2 42 23 - - NW 1016,2 30 -
03.08.2020 10:00:00 20,9 10,7 35 19 - - NW 1016,4 - 0,0
03.08.2020 09:00:00 19,7 10,7 37 20 - - NW 1016,6 - 0,0
03.08.2020 08:00:00 19,2 10,7 37 20 - - WNW 1016,0 75 -
03.08.2020 07:00:00 18,9 11,7 31 17 - - WNW 1015,9 - 0,0
03.08.2020 06:00:00 19,1 11,9 34 18 - - NW 1015,6 - 0,0
03.08.2020 05:00:00 19,7 12,0 31 17 - - NW 1016,1 20 -
03.08.2020 04:00:00 20,1 11,6 34 18 - - NW 1016,5 - 0,0
03.08.2020 03:00:00 20,3 11,2 39 21 - - NW 1016,6 - 0,0
03.08.2020 02:00:00 20,1 11,3 34 18 - - NW 1017,0 20 -
03.08.2020 01:00:00 20,4 11,6 31 17 - - NW 1017,4 - 0,0
03.08.2020 00:00:00 20,8 11,7 29 16 - - NW 1017,5 - 0,0
02.08.2020 23:00:00 21,6 11,3 29 16 - - NW 1017,4 20 -
02.08.2020 22:00:00 22,7 11,4 35 19 - - NW 1016,6 - 0,0
02.08.2020 21:00:00 23,6 11,3 37 20 - - NW 1015,7 - 0,0
02.08.2020 20:00:00 24,7 11,6 37 20 - - NW 1014,8 25 -
02.08.2020 19:00:00 25,7 11,8 35 19 - - NW 1014,9 - 0,0
02.08.2020 18:00:00 27,2 12,4 37 20 - - NW 1014,7 - 0,0
02.08.2020 17:00:00 28,3 12,6 34 18 - - NW 1014,3 25 -
02.08.2020 16:00:00 28,5 13,2 39 21 - - NW 1014,6 - 0,0
02.08.2020 15:00:00 27,9 12,7 41 22 - - NW 1015,7 - 0,0
02.08.2020 14:00:00 27,4 13,0 42 23 - - NW 1016,3 30 -
02.08.2020 13:00:00 26,8 13,9 31 17 - - NW 1016,5 - 0,0
02.08.2020 12:00:00 25,3 13,8 31 17 - - NW 1016,8 - 0,0
02.08.2020 11:00:00 23,9 14,3 31 17 - - NW 1017,1 30 -
02.08.2020 10:00:00 22,7 14,0 34 18 - - NW 1017,5 - 0,0
02.08.2020 09:00:00 21,5 14,4 34 18 - - NW 1017,5 - 0,0
02.08.2020 08:00:00 20,7 14,3 29 16 - - WNW 1017,5 40 -
02.08.2020 07:00:00 20,7 14,6 31 17 - - WNW 1017,4 - 0,0
02.08.2020 06:00:00 21,0 14,9 26 14 - - NW 1017,2 - 0,0
02.08.2020 05:00:00 21,3 15,4 22 12 - - NW 1016,9 15 -
02.08.2020 04:00:00 21,9 15,5 26 14 - - NW 1016,8 - 0,0
02.08.2020 03:00:00 22,4 15,5 28 15 - - NW 1017,2 - 0,0
02.08.2020 02:00:00 22,5 15,6 24 13 - - NW 1017,7 15 -
02.08.2020 01:00:00 22,8 15,4 29 16 - - NW 1017,9 - 0,0
02.08.2020 00:00:00 23,2 15,5 37 20 - - WNW 1017,5 - 0,0
01.08.2020 23:00:00 24,2 14,9 37 20 - - WNW 1017,1 15 -

tt = Température de l'air
td = dewpoint
ff = Vitesse du vent
fx = gusts
dd = Direction du vent
ppp = reduced air pressure
vv = visibility
rr = Quantités de précipitations

stations d'obs. à proximité